Regional Weather Roundup
Issued by NWS

Home | Current Version | Previous Version | Text Only | Print | Product List | Glossary Off
Versions: 1 2 3 4 5 6 7 8 9 10 11 12 13 14 15 16 17 18 19 20 21 22 23 24 25 26 27 28 29 30 31 32 33 34 35 36 37 38 39 40 41 42 43 44 45 46 47 48 49 50

000
ASUS45 KABQ 290510
RWRNM
WEATHER ROUNDUP FOR NEW MEXICO
NATIONAL WEATHER SERVICE ALBUQUERQUE NM
1000 PM MST WED JAN 28 2015

NOTE: "FAIR" MEANS FEW OR NO CLOUDS BELOW 12,000 FEET AGL WITH NO
       SIGNIFICANT WEATHER OR OBSTRUCTIONS TO VISION.

      THIS PRODUCT IS RELEASED AS TWO VERSIONS.  ONE VERSION NEAR
      THE TOP OF THE HOUR CONTAINING PRELIMINARY DATA FROM ALBUQUERQUE
      AND OTHER STATIONS.  A FINAL VERSION WITH ADDITIONAL DATA IS
      ISSUED ABOUT 10 MINUTES AFTER THE HOUR.

NMZ501-503-504-510>518-290600-
NORTHWEST PLATEAU/NORTHCENTRAL MOUNTAINS

CITY           SKY/WX    TMP DP  RH WIND       PRES   REMARKS
FARMINGTON     CLEAR     34  25  69 NE6       30.27R WCI  29
LOS ALAMOS     MOCLDY    41  26  56 NW3       30.31R
SANTA FE       MOCLDY    36  26  67 N8        30.27R WCI  30
TAOS           MOCLDY    34  25  69 N5        30.31R WCI  30
ANGEL FIRE     FAIR      26  23  89 CALM      30.34R

$$
NMZ402-403-502-505>509-290600-
WESTCENTRAL MOUNTAINS/SOUTHWEST MOUNTAINS

CITY           SKY/WX    TMP DP  RH WIND       PRES   REMARKS
GALLUP         CLOUDY    37  29  72 CALM      30.29S
GRANTS         MOCLDY    33  30  88 N6        30.29F WCI  28
SILVER CITY    CLEAR     45  32  61 N12       30.24S

$$
NMZ407-409-411-412-290600-
SOUTHERN DESERTS

CITY           SKY/WX    TMP DP  RH WIND       PRES   REMARKS
LORDSBURG      FAIR      43  32  65 CALM      30.18R
DEMING         CLEAR     47  33  58 W7        30.19R
LAS CRUCES     CLEAR     48  38  68 W5        30.19R
ALAMOGORDO     PTCLDY    50  32  50 E8        30.17S
T OR C         PTCLDY    50  34  54 N6        30.18R

$$
NMZ519>523-290600-
CENTRAL VALLEYS/CENTRAL HIGHLANDS

CITY           SKY/WX    TMP DP  RH WIND       PRES   REMARKS
ALBUQUERQUE    MOCLDY    50  29  44 N10       30.24R
DOUBLE EAGLE   PTCLDY    43  28  55 N8        30.25S
MORIARTY ARPT  FAIR      32  27  80 CALM      30.28R
CLINES CORNERS PTCLDY    39  28  64 NW10      30.25F WCI  32
BELEN          FAIR      40  31  69 W6        30.25R
SOCORRO        FAIR      51  31  46 N8        30.22S

$$
NMZ524>526-539-540-290600-
SOUTHCENTRAL MOUNTAINS

CITY           SKY/WX    TMP DP  RH WIND       PRES   REMARKS
RUIDOSO        MOCLDY    45  28  53 S8        30.27S

$$
NMZ527>531-290600-
NORTHEAST HIGHLANDS/NORTHEAST PLAINS

CITY           SKY/WX    TMP DP  RH WIND       PRES   REMARKS
LAS VEGAS      MOCLDY    38  25  59 N9        30.27R WCI  31
RATON          MOCLDY    37  25  61 N7        30.25R WCI  32
CLAYTON        CLEAR     45  31  58 NE17      30.23R

$$
NMZ532>537-290600-
EASTCENTRAL PLAINS

CITY           SKY/WX    TMP DP  RH WIND       PRES   REMARKS
TUCUMCARI      PTCLDY    46  35  65 E7        30.13R
CANNON AFB     PTCLDY    48  33  57 W6        30.14F
CLOVIS AIRPORT PTCLDY    43  32  65 W9        30.15R

$$
NMZ028-029-538-290600-
SOUTHEAST PLAINS

CITY           SKY/WX    TMP DP  RH WIND       PRES   REMARKS
ROSWELL        MOCLDY    51  37  58 W7        30.13S
ARTESIA        PTCLDY    50  43  76 NW10      30.14R
CARLSBAD       PTCLDY    55  37  50 CALM      30.11R
HOBBS          PTCLDY    46  36  66 CALM      30.15R


$$


USA.gov is the U.S. government's official web portal to all federal, state and local government web resources and services.